Theta_e
316 316 315 316 315 315 314 314 313 313 314 314 315 315 316 316 316 317 311 313 314 322 317 311 311 310 310 310 314 316 307 304 306 306 309 314 311 315 317 315 317 318 319 321 323
315 315 315 315 315 315 315 314 313 313 313 313 315 315 315 315 316 313 319 315 320 321 310 305 305 308 307 307 310 309 305 306 311 312 311 314 313 313 311 312 314 317 320 321 321
314 315 315 315 315 314 314 314 314 313 313 313 313 314 314 316 313 307 323 321 319 322 311 309 307 307 304 307 307 308 303 308 310 313 315 313 313 315 311 308 312 313 316 318 319
314 314 314 314 314 314 314 313 313 313 312 312 312 314 315 317 299 314 326 322 322 318 309 307 305 303 302 301 307 302 306 308 309 312 312 311 314 312 312 312 313 313 314 316 317
313 313 312 312 313 313 313 313 313 312 311 311 311 314 315 309 307 320 326 324 319 312 309 305 303 303 300 301 303 302 304 305 308 309 310 312 310 310 311 313 311 312 313 314 316
312 312 311 311 311 312 312 313 311 311 311 311 312 313 312 298 316 318 320 318 314 311 310 309 305 305 302 301 301 303 303 304 305 305 307 304 306 307 309 310 309 314 315 313 313
312 311 311 311 311 311 312 312 311 311 311 312 313 314 307 301 315 319 320 316 315 313 307 309 309 304 304 301 304 303 299 301 302 303 303 306 301 302 309 309 309 310 316 315 313
311 311 310 311 311 311 312 312 311 311 312 313 314 315 303 310 314 314 316 314 315 315 312 311 310 306 303 304 301 298 299 295 302 303 303 303 297 304 307 306 307 308 311 312 312
311 310 310 310 311 311 311 312 313 313 314 314 314 311 302 317 311 312 315 307 309 311 311 309 308 303 302 298 296 298 292 295 297 301 301 300 298 305 305 305 304 305 308 310 310
309 309 309 310 310 311 311 311 316 316 315 316 315 307 308 305 311 311 312 309 306 305 304 304 303 299 299 297 290 293 293 294 295 300 300 299 299 303 304 304 304 304 306 308 310
309 310 309 309 310 311 313 315 310 309 311 305 303 305 305 310 312 308 309 307 306 303 298 301 296 294 297 299 298 296 295 294 296 299 298 298 299 301 304 304 303 305 305 305 309
309 309 310 310 310 311 313 309 307 309 302 307 306 306 308 309 302 306 310 302 301 297 299 297 293 298 298 298 296 296 294 294 296 299 298 298 297 301 303 303 304 305 305 306 307
309 309 310 310 310 312 313 309 314 311 303 303 305 304 305 307 302 303 306 303 300 297 297 294 296 298 296 296 294 295 294 294 294 297 298 296 295 298 300 302 303 305 305 305 305
309 310 310 310 308 316 311 314 315 312 299 298 301 304 305 306 300 307 307 303 300 296 297 296 298 295 295 294 296 292 297 295 294 293 289 296 288 295 298 299 301 304 305 306 308
308 310 310 307 315 312 312 316 315 310 288 299 300 309 305 301 301 302 308 304 298 298 296 294 294 294 294 295 296 294 297 295 294 292 292 292 289 294 297 296 299 301 303 306 308
309 309 309 313 316 313 316 316 313 298 287 295 299 298 298 300 300 302 302 305 303 299 299 297 301 297 296 298 298 298 296 295 295 293 286 291 290 292 294 297 299 301 301 303 307
307 308 310 312 310 317 317 311 297 291 297 293 294 297 297 297 298 299 298 298 295 292 292 296 296 298 298 295 298 297 293 286 286 286 285 292 288 292 296 298 299 299 302 305 308
306 306 311 316 318 318 313 303 290 294 294 297 297 297 295 298 298 298 297 295 299 297 293 290 287 295 299 296 293 294 293 287 281 283 286 292 286 292 298 301 300 302 305 306 306
305 316 317 319 316 316 306 294 293 295 296 295 297 294 294 295 295 295 296 295 297 298 292 291 290 297 298 298 297 293 289 295 289 290 286 289 292 297 299 299 300 302 304 304 306
311 314 314 314 316 312 302 293 296 299 298 297 291 294 291 293 292 294 293 296 296 299 300 294 289 295 297 299 297 294 297 288 289 281 280 287 288 291 294 296 298 300 301 304 306
313 307 313 313 315 306 296 296 298 301 300 296 294 293 294 293 294 293 293 296 298 296 300 297 292 291 295 293 292 292 290 292 292 290 284 282 288 298 297 298 299 300 302 305 306
308 300 313 314 300 303 296 296 295 296 299 297 298 296 294 294 293 293 292 294 299 299 294 298 293 288 290 296 298 296 292 292 287 285 289 288 287 300 300 300 301 302 304 306 307
300 302 312 310 296 294 296 294 294 293 296 296 295 297 297 294 291 293 294 298 298 297 294 297 292 286 287 292 295 292 293 294 294 292 287 285 289 299 301 301 303 303 305 306 307
299 296 301 305 300 293 291 291 291 297 296 297 296 297 295 293 296 292 292 295 297 297 297 297 294 289 284 287 291 289 291 293 291 286 288 289 291 296 299 300 302 303 305 306 307
299 297 297 293 295 293 293 291 289 290 295 296 294 294 292 289 291 291 293 294 295 297 296 295 289 290 291 291 291 290 290 291 289 290 287 290 291 296 299 300 302 304 305 305 305
296 294 298 294 294 292 291 290 290 290 291 289 290 292 293 290 291 289 292 292 291 295 294 297 289 291 288 291 290 289 291 292 292 292 293 293 292 300 302 303 303 303 304 304 305
300 300 297 295 292 291 291 289 289 291 292 293 293 293 291 291 294 296 296 296 295 293 291 291 290 286 284 289 289 285 290 292 293 294 294 290 296 300 300 300 301 303 305 304 305
Wind_Speed
15 15 14 14 14 13 14 14 14 14 13 14 13 13 13 14 16 12 9 3 1 7 5 6 7 8 9 11 11 13 14 18 24 21 15 8 11 9 5 9 7 4 8 10 14
16 16 15 15 15 15 14 14 14 14 13 13 13 13 13 13 14 9 4 4 7 5 7 10 10 9 10 13 9 14 16 27 21 19 18 14 17 13 6 14 12 11 5 11 16
16 16 16 15 15 15 14 15 14 14 13 12 12 12 12 14 9 6 8 8 8 9 2 2 4 10 14 12 17 16 23 20 22 15 18 20 17 10 12 12 8 8 11 14 14
17 17 17 17 17 17 15 15 14 13 12 12 12 11 12 9 2 6 8 8 8 7 6 5 7 12 13 15 17 17 17 19 19 18 15 18 17 17 14 14 6 10 10 13 13
16 17 18 18 18 18 17 16 14 12 11 10 10 10 11 8 2 8 9 9 8 6 2 4 8 9 13 10 12 16 19 11 15 19 19 18 20 18 19 9 8 8 9 12 14
16 18 18 18 18 17 16 14 14 12 10 9 9 10 9 9 6 5 8 7 5 6 2 2 1 4 7 10 11 4 15 13 15 15 16 18 22 19 21 6 11 21 15 11 11
16 18 19 18 18 17 16 13 13 11 8 8 6 7 8 5 4 5 7 7 4 6 4 2 2 6 1 8 8 10 12 14 17 18 19 15 22 25 17 8 16 17 19 13 9
17 17 18 18 17 17 16 16 14 11 9 7 5 7 7 3 3 7 7 9 7 6 6 4 4 8 9 2 8 11 14 17 19 18 17 14 19 6 7 6 10 10 10 10 8
19 18 19 18 17 16 16 16 9 7 8 7 7 6 3 7 8 5 8 7 6 6 5 3 8 9 5 12 12 13 14 17 10 5 8 15 17 15 4 4 6 6 10 8 7
21 19 18 18 16 15 16 5 12 16 8 7 5 7 6 4 1 2 5 6 6 5 7 10 9 11 11 10 12 11 11 9 13 11 12 15 14 8 8 7 10 10 10 11 10
22 20 19 17 15 12 8 6 7 8 8 8 3 8 2 3 4 8 5 6 7 9 11 7 11 13 13 11 13 8 10 10 6 1 11 15 15 13 14 14 14 13 13 13 13
22 21 19 16 15 12 7 2 6 6 7 7 9 10 10 4 5 10 6 9 9 12 4 9 14 13 5 8 11 12 13 12 6 8 9 14 18 16 17 16 16 16 14 12 8
21 20 17 15 13 7 3 5 7 3 7 3 3 4 4 9 5 6 10 12 11 11 10 12 7 3 10 11 12 13 13 9 10 6 14 14 21 21 8 7 8 7 5 6 5
21 18 15 14 6 1 1 6 8 6 7 8 6 5 8 5 7 3 8 9 8 11 7 10 2 10 12 11 10 13 10 8 9 10 9 3 7 8 10 7 9 9 8 4 1
21 18 12 6 4 2 7 9 3 5 6 6 7 5 3 8 5 8 4 10 15 11 8 3 6 11 13 12 6 12 2 9 9 12 15 15 11 12 5 11 14 6 5 3 4
21 17 6 4 3 5 8 6 5 8 4 6 3 4 7 9 8 3 7 8 8 14 14 17 7 9 12 7 10 2 10 12 12 13 13 19 11 10 9 11 12 7 3 2 4
24 14 4 4 5 8 7 5 7 7 3 4 4 5 7 10 8 8 9 12 12 14 17 20 19 16 9 13 9 13 12 11 12 11 9 7 7 13 5 4 2 4 5 5 2
24 10 6 3 6 7 5 6 7 3 3 1 6 10 15 11 12 8 12 13 11 11 14 16 16 13 13 16 13 16 16 11 10 10 9 13 7 4 1 7 4 5 2 4 3
23 4 3 2 5 5 7 7 5 3 3 5 11 13 9 5 7 4 13 13 12 3 14 10 15 4 8 7 10 7 12 6 10 15 12 14 10 9 12 9 7 6 6 3 5
6 3 3 7 2 5 6 5 4 2 4 5 9 5 9 7 7 9 7 0 6 5 7 2 10 7 7 10 9 9 6 8 9 11 18 12 11 7 13 9 5 5 4 8 10
4 4 6 5 4 6 6 4 6 4 6 6 8 12 13 14 13 13 9 5 7 5 6 5 5 3 8 9 13 7 13 13 9 11 10 12 7 8 2 4 3 4 6 13 15
4 4 5 4 4 1 5 4 5 9 9 11 8 12 13 12 13 14 13 9 2 8 12 7 6 9 14 8 11 16 17 18 11 11 10 14 16 13 7 5 5 11 13 14 12
6 3 3 5 3 4 5 10 6 10 5 4 7 5 6 12 11 9 8 4 6 11 3 5 7 9 7 11 9 12 17 16 18 14 19 16 6 7 8 10 14 17 14 12 12
5 4 3 2 2 5 7 5 5 2 9 7 10 8 11 14 13 9 11 3 3 5 3 3 10 14 13 11 6 7 9 10 14 13 16 22 21 21 20 20 18 16 12 13 11
3 4 4 5 1 7 4 6 10 5 3 6 6 7 8 9 11 14 12 10 8 8 10 8 16 18 19 21 21 21 23 21 21 20 22 21 26 21 21 22 19 18 15 15 14
5 5 3 8 6 6 2 3 8 5 5 7 11 11 7 13 14 18 17 15 14 12 12 8 14 16 18 16 16 19 22 24 24 24 27 26 31 23 23 19 13 13 15 17 17
2 1 4 1 4 6 3 3 6 6 8 9 11 11 13 15 12 14 13 12 12 11 7 6 4 5 11 9 9 15 21 24 25 25 23 26 24 15 16 15 13 14 17 19 20
Wind_Direction
343 341 337 334 330 325 324 323 320 318 317 317 321 322 322 322 303 253 264 43 217 306 246 249 225 204 212 224 226 236 239 242 239 237 252 224 227 213 250 259 280 286 301 342 333
340 337 335 333 331 329 325 321 315 314 313 313 318 321 323 321 294 263 111 140 211 163 218 214 208 200 210 218 207 218 233 243 247 250 248 257 222 231 248 241 254 267 235 326 327
340 335 333 330 328 326 323 320 316 313 310 311 312 315 314 303 270 67 140 176 207 235 257 244 223 220 231 227 218 220 245 252 247 251 256 256 228 224 245 234 257 289 303 312 321
338 336 333 331 326 325 323 319 317 313 308 308 307 310 303 273 324 77 133 170 191 237 223 199 211 213 225 216 227 241 247 256 265 248 241 248 254 233 249 264 354 297 304 304 305
337 337 333 329 327 325 322 319 317 311 303 300 300 306 276 226 208 112 151 169 186 204 225 203 219 229 233 232 227 238 252 234 252 255 252 262 254 256 260 247 270 272 304 309 303
335 333 330 327 325 322 317 314 312 306 297 290 289 290 258 243 97 159 182 181 235 238 170 234 42 278 280 245 232 287 249 247 242 241 243 251 260 256 254 198 235 236 250 310 319
335 329 327 326 323 319 315 310 304 292 285 280 276 270 261 282 155 128 189 228 240 253 243 199 286 246 355 238 243 251 251 232 237 242 249 253 256 250 252 262 250 253 235 248 291
329 327 327 326 324 322 318 311 295 272 255 241 239 254 270 124 221 241 215 241 225 240 270 267 246 276 253 330 235 247 236 252 231 228 231 232 258 30 148 237 244 258 241 240 245
332 328 327 325 326 325 322 314 293 218 201 194 217 248 234 139 221 199 208 236 175 204 222 252 230 259 205 240 237 217 254 221 206 216 248 217 245 187 176 235 241 263 241 219 217
331 328 324 324 325 326 322 268 120 142 167 196 260 245 221 153 164 245 186 245 249 194 204 221 233 240 222 231 243 248 224 232 258 177 224 237 243 225 222 249 258 263 245 249 235
333 328 324 322 319 321 288 199 208 177 201 276 349 300 282 326 231 203 191 199 212 231 251 193 254 230 239 232 278 275 266 261 243 176 265 256 254 253 253 247 237 248 248 250 247
334 329 324 319 316 315 263 360 41 337 293 219 254 260 265 286 245 217 204 227 212 245 216 233 238 257 264 253 244 238 244 242 249 258 268 273 269 273 264 253 248 240 228 245 256
338 331 325 316 313 267 22 43 328 233 259 164 218 247 193 205 236 247 213 225 243 252 252 267 304 266 231 217 233 233 249 255 264 308 271 267 272 245 221 225 212 214 227 229 237
342 335 325 314 279 30 136 341 314 217 263 137 180 148 176 223 240 224 220 229 228 269 273 273 277 225 230 241 239 259 207 262 267 264 275 114 290 187 209 184 184 175 179 157 126
343 340 331 295 347 265 353 326 304 233 261 126 133 92 167 231 1 161 202 214 253 251 232 256 221 213 230 247 242 274 199 242 266 270 281 260 243 248 194 196 175 155 140 117 130
342 343 327 209 240 12 321 308 233 234 244 165 171 200 238 214 238 264 222 221 283 267 237 260 240 268 264 275 243 221 227 230 248 257 252 242 236 230 190 213 178 170 240 279 209
335 332 258 304 352 335 311 226 240 256 98 161 227 236 265 266 251 244 253 239 243 242 238 230 232 220 244 229 210 221 238 253 227 203 246 97 250 266 158 172 223 269 277 282 295
326 303 176 291 317 312 269 232 256 40 276 48 281 278 268 275 249 263 261 259 213 265 267 272 264 205 198 226 257 224 252 265 284 272 273 161 241 148 192 192 254 254 218 177 307
313 188 215 76 314 280 253 241 304 355 356 304 299 266 264 202 278 260 269 279 287 246 262 288 263 147 234 210 213 226 236 302 292 285 281 262 237 222 216 221 202 189 199 228 328
306 235 142 336 270 253 250 269 282 255 303 273 282 268 281 279 258 280 290 281 265 229 276 184 272 243 254 233 186 248 350 218 206 259 256 243 231 240 166 178 193 218 281 321 297
262 247 75 342 221 236 258 304 292 284 274 277 275 273 280 283 282 281 275 256 231 237 254 305 254 249 270 244 242 201 237 251 285 272 273 279 273 85 134 214 268 279 284 297 294
307 268 47 302 253 232 274 349 355 277 278 265 274 273 281 287 280 273 268 261 200 277 261 208 218 251 242 271 222 225 242 256 241 240 231 261 269 289 224 208 199 279 296 299 294
333 310 87 292 310 310 327 285 277 288 277 284 274 261 298 283 284 270 278 6 312 284 293 176 219 272 221 218 218 244 238 242 257 267 261 263 222 146 170 229 280 298 302 289 283
305 307 142 66 49 322 335 294 278 247 280 286 282 277 274 270 262 262 280 247 232 278 56 348 273 267 277 293 227 240 249 240 243 245 250 246 260 274 277 289 295 287 301 295 295
356 59 12 308 17 323 300 294 297 291 248 280 242 256 300 287 287 275 269 275 257 237 242 247 267 271 270 272 271 267 271 259 243 243 250 271 273 280 287 293 296 294 292 286 284
334 333 174 290 284 270 236 259 292 299 266 287 272 294 290 278 282 290 294 285 280 278 258 240 260 266 275 272 272 275 265 258 255 254 256 261 268 276 277 274 271 282 282 281 280
72 179 273 207 254 279 324 293 305 308 272 257 283 289 287 293 297 293 288 278 270 268 259 285 267 318 276 308 302 266 254 247 248 248 253 257 268 286 291 291 304 310 298 293 294